{"data":{"norad_id":54800,"intl_designator":"2022-175AU","name":"STARLINK-5428","alt_names":[],"object_type":"PAYLOAD","status":"ACTIVE","operator":null,"country":"US","launch_date":"2022-12-17","launch_site_code":"AFETR","launch_vehicle":null,"mission":null,"orbit_class":"UNKNOWN","rcs_meters":null,"size_class":null,"mass_kg":null,"dimensions":null,"purposes":["comms"],"wikipedia_slug":null,"has_3d_model":false,"image_url":null,"decayed_at":null,"tle_current":{"epoch":"2026-05-25T03:21:01.296576Z","epoch_age_seconds":58875,"freshness":"FRESH","line1":"1 54800U 22175AU  26145.13959834  .00000240  00000+0  33196-4 0  9995","line2":"2 54800  53.2152  50.6922 0001577  84.2680 275.8491 15.08843027191600","mean_motion":15.08843027,"eccentricity":0.0001577,"inclination_deg":53.2152,"raan_deg":50.6922,"arg_perigee_deg":84.268,"mean_anomaly_deg":275.8491,"bstar":3.3196e-5,"rev_number":19160,"period_min":95.437363213529,"perigee_km":538.64318837329,"apogee_km":540.82508492979,"semimajor_km":6917.8711366515,"source":"CELESTRAK","updated_at":"2026-05-25T13:38:17.696782Z"}}}